FW6530 Weather Reports


Display with metric or nautical units.
time (UTC)temp
F
wind
direction
speed
MPH
gust
MPH
rain 1hr
in
rain 24hr
in
rain mn
in
humidity
%
barometer
mb
20260906181029 86 157 2.0 9.0 0.00 0.00 0.00 21 1026.5
20260906180528 86 101 4.0 10.0 0.00 0.00 0.00 21 1026.7
20260906175525 86 141 2.0 11.0 0.00 0.00 0.00 21 1026.9
20260906175028 86 139 3.0 11.0 0.00 0.00 0.00 21 1026.9
20260906174551 86 135 3.0 11.0 0.00 0.00 0.00 22 1026.9
20260906174024 85 109 4.0 11.0 0.00 0.00 0.00 23 1026.9
20260906173528 85 123 3.0 12.0 0.00 0.00 0.00 23 1027.0
20260906173047 84 119 3.0 12.0 0.00 0.00 0.00 24 1027.1
20260906172526 84 105 6.0 12.0 0.00 0.00 0.00 24 1027.2
20260906172027 84 117 3.0 10.0 0.00 0.00 0.00 25 1027.2
20260906171550 84 114 4.0 13.0 0.00 0.00 0.00 25 1027.3
20260906171025 84 121 6.0 13.0 0.00 0.00 0.00 25 1027.3
20260906170526 83 142 4.0 10.0 0.00 0.00 0.00 25 1027.3
20260906170107 83 130 2.0 12.0 0.00 0.00 0.00 26 1027.4
20260906165527 82 143 4.0 12.0 0.00 0.00 0.00 26 1027.3
20260906165025 82 155 6.0 15.0 0.00 0.00 0.00 26 1027.4
20260906164550 82 122 4.0 15.0 0.00 0.00 0.00 26 1027.4
20260906164022 82 120 4.0 12.0 0.00 0.00 0.00 26 1027.4
20260906163526 81 0 3.0 12.0 0.00 0.00 0.00 27 1027.3
20260906163056 81 107 5.0 12.0 0.00 0.00 0.00 27 1027.3
20260906162526 80 100 4.0 11.0 0.00 0.00 0.00 29 1027.3
20260906162024 79 121 3.0 9.0 0.00 0.00 0.00 31 1027.3
20260906161552 79 146 4.0 9.0 0.00 0.00 0.00 31 1027.4
20260906161025 78 122 3.0 10.0 0.00 0.00 0.00 32 1027.4
20260906160525 77 123 3.0 10.0 0.00 0.00 0.00 34 1027.4
20260906160056 77 127 6.0 10.0 0.00 0.00 0.00 34 1027.4
20260906155527 76 131 4.0 10.0 0.00 0.00 0.00 34 1027.6
20260906155031 76 142 5.0 10.0 0.00 0.00 0.00 35 1027.4
20260906154549 76 128 3.0 10.0 0.00 0.00 0.00 35 1027.4
20260906154024 76 150 4.0 10.0 0.00 0.00 0.00 35 1027.4
20260906153526 76 132 4.0 10.0 0.00 0.00 0.00 35 1027.4
20260906153044 76 142 4.0 13.0 0.00 0.00 0.00 35 1027.4
20260906152529 76 123 5.0 13.0 0.00 0.00 0.00 35 1027.3
20260906152024 76 115 5.0 13.0 0.00 0.00 0.00 34 1027.2
20260906151545 76 110 3.0 9.0 0.00 0.00 0.00 35 1027.2
20260906151025 75 114 2.0 8.0 0.00 0.00 0.00 36 1027.2
20260906150523 75 139 2.0 8.0 0.00 0.00 0.00 37 1027.2
20260906145525 74 223 2.0 4.0 0.00 0.00 0.00 38 1027.2
20260906145024 73 234 1.0 6.0 0.00 0.00 0.00 39 1027.2
20260906144553 73 272 1.0 7.0 0.00 0.00 0.00 39 1027.1
20260906144024 72 221 2.0 7.0 0.00 0.00 0.00 40 1027.1
20260906143525 72 270 2.0 7.0 0.00 0.00 0.00 40 1027.0
20260906143055 71 262 2.0 8.0 0.00 0.00 0.00 40 1027.0
20260906142524 70 258 1.0 8.0 0.00 0.00 0.00 42 1027.0
20260906142026 70 213 1.0 6.0 0.00 0.00 0.00 42 1027.1
20260906141551 70 267 3.0 6.0 0.00 0.00 0.00 43 1027.1
20260906141024 69 276 1.0 4.0 0.00 0.00 0.00 46 1027.1
20260906140526 68 277 1.0 3.0 0.00 0.00 0.00 47 1027.1
20260906140054 68 0 1.0 3.0 0.00 0.00 0.00 46 1027.0
20260906135526 68 0 1.0 3.0 0.00 0.00 0.00 45 1027.1
20260906135022 68 277 1.0 3.0 0.00 0.00 0.00 44 1027.0
20260906134543 68 0 0.0 4.0 0.00 0.00 0.00 44 1026.9
20260906134026 68 0 0.0 4.0 0.00 0.00 0.00 43 1026.9
20260906133528 68 0 1.0 8.0 0.00 0.00 0.00 44 1026.8
20260906133106 67 278 1.0 8.0 0.00 0.00 0.00 45 1026.7
20260906132526 66 275 2.0 8.0 0.00 0.00 0.00 45 1026.6
20260906132026 66 292 2.0 7.0 0.00 0.00 0.00 47 1026.7
20260906131550 65 294 3.0 7.0 0.00 0.00 0.00 48 1026.6
20260906131024 64 294 1.0 5.0 0.00 0.00 0.00 49 1026.6
20260906130526 63 296 2.0 4.0 0.00 0.00 0.00 51 1026.6
20260906130104 63 0 1.0 4.0 0.00 0.00 0.00 52 1026.5
20260906125526 63 0 0.0 4.0 0.00 0.00 0.00 53 1026.4
20260906125027 62 0 0.0 4.0 0.00 0.00 0.00 53 1026.4
20260906124542 62 313 1.0 4.0 0.00 0.00 0.00 55 1026.3
20260906124030 61 314 1.0 4.0 0.00 0.00 0.00 57 1026.3
20260906123525 61 317 1.0 4.0 0.00 0.00 0.00 58 1026.3
20260906123042 60 318 0.0 3.0 0.00 0.00 0.00 58 1026.2
20260906122523 60 0 0.0 5.0 0.00 0.00 0.00 60 1026.2
20260906122023 60 318 2.0 5.0 0.00 0.00 0.00 61 1026.2
20260906121548 59 15 2.0 3.0 0.00 0.00 0.00 62 1026.1
20260906121023 59 16 0.0 2.0 0.00 0.00 0.00 62 1026.2
20260906120526 59 0 0.0 2.0 0.00 0.00 0.00 62 1026.1
20260906120046 60 0 1.0 3.0 0.00 0.00 0.00 61 1026.1
20260906115525 60 16 1.0 3.0 0.00 0.00 0.00 61 1026.1
20260906115025 60 16 1.0 3.0 0.00 0.00 0.00 61 1026.2
20260906114555 60 0 1.0 3.0 0.00 0.00 0.00 61 1026.2
20260906114026 60 16 1.0 3.0 0.00 0.00 0.00 61 1026.1
20260906113525 61 0 0.0 0.0 0.00 0.00 0.00 61 1026.0
20260906113043 61 0 0.0 0.0 0.00 0.00 0.00 60 1026.1
20260906112523 62 0 0.0 0.0 0.00 0.00 0.00 59 1026.1
20260906112023 62 0 0.0 0.0 0.00 0.00 0.00 58 1026.1
20260906111607 63 0 0.0 0.0 0.00 0.00 0.00 58 1026.1
20260906111026 63 0 0.0 0.0 0.00 0.00 0.00 57 1026.2
20260906110524 64 0 0.0 3.0 0.00 0.00 0.00 56 1026.1
20260906110041 64 0 0.0 3.0 0.00 0.00 0.00 56 1026.1
20260906105525 64 16 1.0 4.0 0.00 0.00 0.00 55 1026.2
20260906105030 65 0 0.0 4.0 0.00 0.00 0.00 55 1026.1
20260906104552 65 24 1.0 2.0 0.00 0.00 0.00 52 1026.2
20260906104023 66 0 0.0 1.0 0.00 0.00 0.00 50 1026.1
20260906103525 66 0 0.0 1.0 0.00 0.00 0.00 49 1026.1
20260906103104 67 0 0.0 4.0 0.00 0.00 0.00 49 1026.1
20260906102528 67 0 0.0 4.0 0.00 0.00 0.00 49 1026.1
20260906102026 67 20 2.0 4.0 0.00 0.00 0.00 48 1026.0
20260906101544 67 20 1.0 4.0 0.00 0.00 0.00 48 1026.0
20260906101024 67 0 0.0 4.0 0.00 0.00 0.00 47 1025.9
20260906100526 68 0 1.0 4.0 0.00 0.00 0.00 47 1025.8
20260906100055 68 18 0.0 2.0 0.00 0.00 0.00 47 1025.8
20260906095531 68 0 0.0 4.0 0.00 0.00 0.00 47 1025.7
20260906095025 68 0 1.0 5.0 0.00 0.00 0.00 48 1025.8
20260906094550 68 20 3.0 5.0 0.00 0.00 0.00 48 1025.7
20260906094026 68 33 1.0 3.0 0.00 0.00 0.00 47 1025.7
20260906093526 68 0 1.0 4.0 0.00 0.00 0.00 47 1025.8
20260906093046 68 0 0.0 4.0 0.00 0.00 0.00 47 1025.8
20260906092527 69 35 1.0 3.0 0.00 0.00 0.00 46 1025.9
20260906092024 69 37 0.0 4.0 0.00 0.00 0.00 45 1025.9
20260906091545 69 0 0.0 5.0 0.00 0.00 0.00 45 1025.9
20260906091025 69 38 2.0 7.0 0.00 0.00 0.00 45 1026.0
20260906090529 69 40 3.0 7.0 0.00 0.00 0.00 44 1026.0
20260906090045 70 352 2.0 5.0 0.00 0.00 0.00 44 1025.9
20260906085523 70 0 0.0 7.0 0.00 0.00 0.00 44 1025.8
20260906085023 70 278 2.0 7.0 0.00 0.00 0.00 43 1025.6
20260906084600 70 267 2.0 7.0 0.00 0.00 0.00 43 1025.7
20260906084027 70 0 2.0 7.0 0.00 0.00 0.00 43 1025.7
20260906083526 70 279 1.0 7.0 0.00 0.00 0.00 43 1025.7
20260906083051 70 269 2.0 7.0 0.00 0.00 0.00 43 1025.7
20260906082523 69 272 2.0 7.0 0.00 0.00 0.00 44 1025.7
20260906082026 69 269 2.0 8.0 0.00 0.00 0.00 44 1025.8
20260906081542 69 250 1.0 8.0 0.00 0.00 0.00 44 1025.7
20260906081026 69 270 3.0 8.0 0.00 0.00 0.00 45 1025.7
20260906080525 68 270 1.0 6.0 0.00 0.00 0.00 46 1025.7
20260906080042 68 0 0.0 8.0 0.00 0.00 0.00 46 1025.8
20260906075524 68 275 2.0 8.0 0.00 0.00 0.00 47 1025.8
20260906075023 67 290 4.0 8.0 0.00 0.00 0.00 48 1025.8
20260906074551 66 281 3.0 7.0 0.00 0.00 0.00 49 1025.9
20260906074026 66 294 3.0 7.0 0.00 0.00 0.00 51 1026.0
20260906073525 65 300 3.0 7.0 0.00 0.00 0.00 52 1025.9
20260906073049 64 338 1.0 4.0 0.00 0.00 0.00 53 1025.9
20260906072526 64 343 1.0 3.0 0.00 0.00 0.00 54 1026.1
20260906072027 64 343 1.0 3.0 0.00 0.00 0.00 54 1026.1
20260906071545 64 343 1.0 3.0 0.00 0.00 0.00 54 1026.1
20260906071023 64 343 1.0 3.0 0.00 0.00 0.00 54 1026.0
20260906070523 64 343 1.0 3.0 0.00 0.00 0.00 53 1026.1
20260906070056 64 343 1.0 3.0 0.00 0.00 0.00 53 1026.1
20260906065525 65 0 1.0 3.0 0.00 0.00 0.00 53 1026.1
20260906065026 65 343 2.0 3.0 0.00 0.00 0.00 53 1026.2
20260906064550 65 343 2.0 3.0 0.00 0.00 0.00 52 1026.2
20260906064033 65 343 0.0 3.0 0.00 0.00 0.00 52 1026.3
20260906063526 66 0 1.0 3.0 0.00 0.00 0.00 51 1026.2
20260906063043 66 343 1.0 3.0 0.00 0.00 0.00 51 1026.3
20260906062524 66 343 0.0 2.0 0.00 0.00 0.00 51 1026.2
20260906062029 66 343 0.0 2.0 0.00 0.00 0.00 51 1026.3
20260906061554 66 0 0.0 2.0 0.00 0.00 0.00 50 1026.2
20260906061024 67 0 1.0 2.0 0.00 0.00 0.00 50 1026.1
20260906060524 67 343 1.0 2.0 0.00 0.00 0.00 50 1026.1
20260906060050 68 0 0.0 0.0 0.00 0.00 0.00 50 1026.2
20260906055522 68 0 0.0 0.0 0.00 0.00 0.00 49 1026.1
20260906055026 69 0 0.0 0.0 0.00 0.00 0.00 48 1026.1
20260906054559 69 0 0.0 2.0 0.00 0.00 0.00 48 1026.1
20260906054024 70 0 0.0 2.0 0.00 0.00 0.00 47 1026.1
20260906053525 70 343 0.0 0.0 0.00 0.00 0.00 47 1026.1
20260906053058 70 0 0.0 0.0 0.00 0.00 0.00 47 1026.2
20260906052524 71 0 0.0 1.0 0.00 0.00 0.00 47 1026.1
20260906052023 71 0 0.0 4.0 0.00 0.00 0.00 47 1026.1
20260906051605 71 343 1.0 4.0 0.00 0.00 0.00 47 1026.1
20260906051026 71 344 2.0 4.0 0.00 0.00 0.00 47 1026.1
20260906050525 71 347 1.0 4.0 0.00 0.00 0.00 47 1026.1
20260906050046 71 348 1.0 8.0 0.00 0.00 0.00 47 1026.2
20260906045525 71 350 2.0 8.0 0.00 0.00 0.00 47 1026.1
20260906045025 71 352 3.0 8.0 0.00 0.00 0.00 48 1026.1
20260906044550 71 19 1.0 5.0 0.00 0.00 0.00 48 1026.2
20260906044027 71 30 2.0 5.0 0.00 0.00 0.00 48 1026.1
20260906043523 71 26 1.0 9.0 0.00 0.00 0.00 48 1026.1
20260906043049 71 348 4.0 9.0 0.00 0.00 0.00 49 1026.2
20260906042526 71 11 3.0 9.0 0.00 0.00 0.00 49 1026.1
20260906042026 71 351 3.0 9.0 0.00 0.00 0.00 48 1026.1
20260906041542 71 352 2.0 8.0 0.00 0.00 0.00 48 1026.2
20260906041029 71 33 2.0 8.0 0.00 0.00 0.00 47 1026.3
20260906040526 72 13 2.0 5.0 0.00 0.00 0.00 47 1026.3
20260906040122 72 9 2.0 5.0 0.00 0.00 0.00 46 1026.1
20260906035525 72 0 2.0 7.0 0.00 0.00 0.00 46 1026.2
20260906035026 72 360 2.0 9.0 0.00 0.00 0.00 46 1026.0
20260906034602 72 184 3.0 9.0 0.00 0.00 0.00 47 1025.9
20260906034024 72 9 3.0 10.0 0.00 0.00 0.00 47 1026.0
20260906033523 72 188 3.0 10.0 0.00 0.00 0.00 47 1025.9
20260906033103 72 360 5.0 9.0 0.00 0.00 0.00 47 1025.9
20260906032530 73 23 3.0 9.0 0.00 0.00 0.00 47 1025.9
20260906032026 73 360 5.0 9.0 0.00 0.00 0.00 46 1025.8
20260906031544 74 5 3.0 10.0 0.00 0.00 0.00 44 1025.7
20260906031024 74 33 4.0 11.0 0.00 0.00 0.00 41 1025.7
20260906030525 74 17 5.0 16.0 0.00 0.00 0.00 39 1025.5
20260906030054 74 30 5.0 16.0 0.00 0.00 0.00 37 1025.4
20260906025524 74 30 7.0 16.0 0.00 0.00 0.00 36 1025.2
20260906025024 74 32 4.0 10.0 0.00 0.00 0.00 35 1025.2
20260906024603 75 19 4.0 9.0 0.00 0.00 0.00 35 1024.8
20260906024027 75 25 3.0 9.0 0.00 0.00 0.00 35 1024.9
20260906023526 75 26 3.0 9.0 0.00 0.00 0.00 34 1024.7
20260906023043 75 24 3.0 5.0 0.00 0.00 0.00 34 1024.7
20260906022526 76 27 2.0 8.0 0.00 0.00 0.00 34 1024.7
20260906022025 76 31 3.0 8.0 0.00 0.00 0.00 33 1024.7
20260906021543 76 27 1.0 8.0 0.00 0.00 0.00 33 1024.7
20260906021024 77 28 3.0 7.0 0.00 0.00 0.00 33 1024.6
20260906020524 77 40 2.0 7.0 0.00 0.00 0.00 32 1024.6
20260906020050 77 40 2.0 8.0 0.00 0.00 0.00 32 1024.5
20260906015523 78 39 2.0 8.0 0.00 0.00 0.00 32 1024.5
20260906015026 78 38 1.0 9.0 0.00 0.00 0.00 32 1024.5
20260906014546 78 44 3.0 9.0 0.00 0.00 0.00 31 1024.5
20260906014025 79 42 3.0 7.0 0.00 0.00 0.00 31 1024.5
20260906013526 79 42 3.0 11.0 0.00 0.00 0.00 31 1024.5
20260906013041 80 50 4.0 12.0 0.00 0.00 0.00 30 1024.5
20260906012527 80 64 4.0 14.0 0.00 0.00 0.00 30 1024.5
20260906012025 80 63 4.0 14.0 0.00 0.00 0.00 30 1024.4
20260906011542 81 57 6.0 13.0 0.00 0.00 0.00 29 1024.5
20260906011026 81 66 6.0 15.0 0.00 0.00 0.00 29 1024.5
20260906010523 82 68 7.0 15.0 0.00 0.00 0.00 28 1024.5
20260906010048 83 62 6.0 15.0 0.00 0.00 0.00 28 1024.5
20260906005524 84 66 6.0 12.0 0.00 0.00 0.00 27 1024.5
20260906005024 84 79 4.0 12.0 0.00 0.00 0.00 28 1024.4
20260906004546 84 57 4.0 12.0 0.00 0.00 0.00 27 1024.4
20260906004027 84 65 6.0 14.0 0.00 0.00 0.00 27 1024.3
20260906003524 85 59 5.0 14.0 0.00 0.00 0.00 27 1024.3
20260906003044 85 51 6.0 14.0 0.00 0.00 0.00 27 1024.3
20260906002524 85 70 7.0 12.0 0.00 0.00 0.00 27 1024.2
20260906002025 86 94 6.0 11.0 0.00 0.00 0.00 26 1024.2
20260906001543 86 95 4.0 12.0 0.00 0.00 0.00 27 1024.2
20260906001024 86 98 6.0 13.0 0.00 0.00 0.00 26 1024.3
20260906000523 86 78 6.0 13.0 0.00 0.00 0.00 26 1024.2
20260906000050 86 68 6.0 14.0 0.00 0.00 0.00 27 1024.2
20260905235523 86 111 5.0 14.0 0.00 0.00 0.00 27 1024.1
20260905235026 86 59 7.0 14.0 0.00 0.00 0.00 27 1024.1
20260905234547 86 55 5.0 13.0 0.00 0.00 0.00 27 1024.1
20260905234023 86 77 2.0 13.0 0.00 0.00 0.00 27 1024.1
20260905233526 86 104 6.0 13.0 0.00 0.00 0.00 26 1024.0
20260905233053 86 57 6.0 13.0 0.00 0.00 0.00 27 1024.2
20260905232525 87 87 4.0 13.0 0.00 0.00 0.00 26 1024.0
20260905232024 87 51 5.0 13.0 0.00 0.00 0.00 26 1024.0
20260905231542 87 87 6.0 13.0 0.00 0.00 0.00 27 1024.2
20260905231026 86 76 5.0 13.0 0.00 0.00 0.00 27 1024.1
20260905230523 86 100 7.0 13.0 0.00 0.00 0.00 28 1024.1
20260905230057 86 82 5.0 12.0 0.00 0.00 0.00 28 1024.1
20260905225524 86 73 6.0 12.0 0.00 0.00 0.00 27 1024.2
20260905225024 86 86 6.0 16.0 0.00 0.00 0.00 28 1024.2
20260905224609 85 44 6.0 16.0 0.00 0.00 0.00 28 1024.2
20260905224024 85 85 6.0 16.0 0.00 0.00 0.00 28 1024.2
20260905223525 86 90 8.0 16.0 0.00 0.00 0.00 27 1024.2
20260905223046 87 104 6.0 14.0 0.00 0.00 0.00 27 1024.2
20260905222528 87 94 8.0 14.0 0.00 0.00 0.00 27 1024.3
20260905222024 87 72 6.0 14.0 0.00 0.00 0.00 27 1024.3
20260905221553 87 76 7.0 13.0 0.00 0.00 0.00 27 1024.3
20260905221024 88 65 6.0 15.0 0.00 0.00 0.00 27 1024.4
20260905220523 87 61 7.0 15.0 0.00 0.00 0.00 27 1024.3
20260905220048 87 36 3.0 13.0 0.00 0.00 0.00 27 1024.4
20260905215524 86 57 2.0 15.0 0.00 0.00 0.00 28 1024.5
20260905215025 86 114 4.0 15.0 0.00 0.00 0.00 29 1024.5
20260905214548 86 93 8.0 15.0 0.00 0.00 0.00 28 1024.5
20260905214026 87 63 8.0 15.0 0.00 0.00 0.00 27 1024.6
20260905213526 87 84 5.0 16.0 0.00 0.00 0.00 28 1024.6
20260905213059 86 124 5.0 16.0 0.00 0.00 0.00 29 1024.7
20260905212533 86 103 9.0 16.0 0.00 0.00 0.00 28 1024.9
20260905212026 86 54 8.0 16.0 0.00 0.00 0.00 29 1024.7
20260905211549 85 46 8.0 15.0 0.00 0.00 0.00 30 1024.7
20260905211023 85 98 5.0 12.0 0.00 0.00 0.00 30 1024.9
20260905210524 85 71 6.0 13.0 0.00 0.00 0.00 30 1025.0
20260905210100 85 96 6.0 17.0 0.00 0.00 0.00 30 1025.0
20260905205525 86 117 8.0 17.0 0.00 0.00 0.00 30 1024.9
20260905205025 87 99 4.0 14.0 0.00 0.00 0.00 29 1024.9
20260905204549 87 61 6.0 13.0 0.00 0.00 0.00 30 1025.1
20260905204023 86 115 4.0 10.0 0.00 0.00 0.00 29 1025.1
20260905203526 86 101 3.0 14.0 0.00 0.00 0.00 30 1025.2
20260905203047 86 47 5.0 17.0 0.00 0.00 0.00 30 1025.3
20260905202527 85 53 8.0 17.0 0.00 0.00 0.00 31 1025.4
20260905202023 86 98 8.0 13.0 0.00 0.00 0.00 30 1025.4
20260905201547 87 113 7.0 13.0 0.00 0.00 0.00 30 1025.5
20260905201024 87 121 4.0 9.0 0.00 0.00 0.00 30 1025.7
20260905200527 86 0 2.0 9.0 0.00 0.00 0.00 31 1025.6
20260905200042 85 169 4.0 9.0 0.00 0.00 0.00 31 1025.6
20260905195523 85 124 3.0 9.0 0.00 0.00 0.00 32 1025.7
20260905195028 85 94 3.0 12.0 0.00 0.00 0.00 32 1025.8
20260905194551 86 117 5.0 12.0 0.00 0.00 0.00 31 1025.8
20260905194024 86 95 3.0 12.0 0.00 0.00 0.00 31 1025.9
20260905193524 86 123 3.0 12.0 0.00 0.00 0.00 32 1026.1
20260905193042 85 49 5.0 12.0 0.00 0.00 0.00 33 1026.1
20260905192525 85 73 4.0 13.0 0.00 0.00 0.00 32 1026.0
20260905192025 85 89 3.0 14.0 0.00 0.00 0.00 32 1026.3
20260905191543 85 94 8.0 14.0 0.00 0.00 0.00 32 1026.4
20260905191026 85 59 2.0 13.0 0.00 0.00 0.00 32 1026.3
20260905190524 84 101 4.0 13.0 0.00 0.00 0.00 33 1026.5
20260905190041 84 99 4.0 14.0 0.00 0.00 0.00 33 1026.5
20260905185523 83 55 5.0 14.0 0.00 0.00 0.00 33 1026.6
20260905185025 84 89 8.0 14.0 0.00 0.00 0.00 32 1026.8
20260905184559 84 113 3.0 12.0 0.00 0.00 0.00 33 1026.7
20260905184023 84 109 4.0 12.0 0.00 0.00 0.00 33 1026.8
20260905183522 85 79 6.0 12.0 0.00 0.00 0.00 33 1026.9
20260905183043 85 110 2.0 10.0 0.00 0.00 0.00 33 1026.9
20260905182523 84 109 5.0 10.0 0.00 0.00 0.00 34 1026.9
20260905182026 84 113 3.0 10.0 0.00 0.00 0.00 34 1026.9
20260905181546 83 106 3.0 15.0 0.00 0.00 0.00 34 1027.1